Regional Weather Roundup
Issued by NWS

Home | Current Version | Previous Version | Text Only | Print | Product List | Glossary Off
Versions: 1 2 3 4 5 6 7 8 9 10 11 12 13 14 15 16 17 18 19 20 21 22 23 24 25 26 27 28 29 30 31 32 33 34 35 36 37 38 39 40 41 42 43 44 45 46 47 48 49 50

000
ASUS43 KIND 231600
RWRIN

WEATHER ROUNDUP FOR INDIANA
NATIONAL WEATHER SERVICE INDIANAPOLIS IN
1200 PM EDT TUE MAY 23 2017

NOTE: "FAIR" INDICATES FEW OR NO CLOUDS BELOW 12,000 FEET WITH NO
SIGNIFICANT WEATHER AND/OR OBSTRUCTIONS TO VISIBILITY.

* - STATION DOES NOT REPORT WEATHER SUCH AS PRECIPITATION OR FOG.

+ - STATION NOT QUALITY CONTROLLED BY THE NATIONAL WEATHER SERVICE.
    USE DATA WITH CAUTION...ESPECIALLY DEWPOINT AND RELATIVE
    HUMIDITY OBSERVATIONS.

INZ001>003-010>013-019-020-231700-
NORTHWEST INDIANA

CITY           SKY/WX    TMP DP  RH WIND       PRES   REMARKS
GARY /AIRPORT/ LGT RAIN  61  55  82 W8        29.83F
MICHIGAN CITY+ RAIN      61  55  82 NW6       29.84S
MONTICELLO +   CLOUDY    66  50  55 S3        29.81F
RENSSELAER +   CLOUDY    64  52  63 NW6       29.82F

$$

LMZ046-743>745-231700-
SOUTHERN LAKE MICHIGAN

STATION/POSITION TIME  TEMP    WIND        PRES    WAVE
                       AIR SEA DIR/SP/G            HT
                 (UTC) (F)     (DEG/KT/KT) (MB)    (FT)
BURNS HARBOR     1540   58     280/  4/  4 1010.5S
MICHIGAN CITY    1530   57     240/  8/  9   N/A
5NW MICH CITY    1550   55 53  260/  6/  6   N/A     1

$$

INZ004-005-014>016-021>024-231700-
NORTH CENTRAL INDIANA

CITY           SKY/WX    TMP DP  RH WIND       PRES   REMARKS
GOSHEN         PTSUNNY   67  46  47 SW3       29.82F
SOUTH BEND     CLOUDY    65  50  58 S3        29.83F

$$

INZ006>009-017-018-025>027-231700-
NORTHEAST INDIANA

CITY           SKY/WX    TMP DP  RH WIND       PRES   REMARKS
ANGOLA *+      MOSUNNY   68  50  52 S5        29.83F
FORT WAYNE     CLOUDY    68  48  48 CALM      29.83F
KENDALLVILLE + MOSUNNY   70  48  46 S5        29.84F

$$

INZ028-029-035-036-043>045-051>053-231700-
WEST CENTRAL INDIANA

CITY           SKY/WX    TMP DP  RH WIND       PRES   REMARKS
LAFAYETTE      CLOUDY    66  52  60 S6        29.81F
TERRE HAUTE    CLOUDY    68  51  54 CALM      29.81F

$$

INZ030>032-037>040-046>048-054>057-064-065-231700-
CENTRAL INDIANA

CITY           SKY/WX    TMP DP  RH WIND       PRES   REMARKS
ANDERSON       MOSUNNY  N/A N/A N/A SE8       29.83F
COLUMBUS       MOSUNNY   64  48  55 SE7       29.82S
INDIANAPOLIS   CLOUDY    66  49  54 VRB3      29.80F
-EAGLE CREEK   CLOUDY    67  48  50 SE6       29.80F
KOKOMO +       CLOUDY    66  52  60 VRB5      29.83F
SHELBYVILLE    CLOUDY    70  46  42 SE8       29.80F

$$

INZ033-034-041-042-049-050-058-059-231700-
EAST CENTRAL INDIANA

CITY           SKY/WX    TMP DP  RH WIND       PRES   REMARKS
MUNCIE         CLOUDY    69  46  43 SE6       29.82F
RICHMOND +     SUNNY     66  48  52 E8        29.84F

$$

INZ060-061-067>069-081>083-085>088-231700-
SOUTHWEST INDIANA

CITY           SKY/WX    TMP DP  RH WIND       PRES   REMARKS
EVANSVILLE     MOSUNNY   73  50  44 CALM      29.78F
HUNTINGBURG *+ CLOUDY    69  52  54 E5        29.79F

$$

INZ062-063-066-070>080-084-089>092-231700-
SOUTH CENTRAL AND SOUTHEAST INDIANA

CITY           SKY/WX    TMP DP  RH WIND       PRES   REMARKS
BLOOMINGTON    CLOUDY    67  48  50 E8        29.80F
MADISON *+     SUNNY     68  48  49 CALM      29.82F
SEYMOUR +      SUNNY     70  50  49 E7        29.81F

$$




USA.gov is the U.S. government's official web portal to all federal, state and local government web resources and services.